Location: Tierra del Sol
(32.6128°N, 116.3319°W)
Time: 09:55:05
(UTC-07:00)

ISS - Pass Details

Date: 15 October 2017
Orbit: 401 x 408 km, 51.6° (Epoch: 19 October)

Event Time Altitude Azimuth Distance (km) Brightness Sun altitude
Rises 18:41:31 0° 323° (NW) 2,321 0.5 -7.0°
Reaches altitude 10° 18:43:46 10° 335° (NNW) 1,460 -0.7 -7.5°
Maximum altitude 18:46:42 30° 39° (NE) 759 -2.8 -8.1°
Enters shadow 18:49:27 11° 101° (E) 1,398 -1.7 -8.7°
